Find Starlink 4208

NORAD ID: 52844 Int'l Des: 2022-062 Owner: SPXS Country: US Constellation: starlink operational
LEOCIRCULAR

当前视图

正在加载3D地球...

About Starlink 4208

Starlink 4208 (NORAD 52844) is a starlink constellation satellite (v1.5) launched Jun 17, 2022 by SPXS of US. It operates in LEO, CIRCULAR orbit with a mass of 297.00 kg.

即将过境

Passes for default location (London). Set your location on the main map for personalized predictions.

高度历史

Loading altitude history...

两行轨道根数

1 52844U 22062Q 26263.43750798 .00003024 00000-0 10316-3 0 9990
2 52844 53.1588 227.5217 0001299 65.7734 294.3403 15.33571840235354
Epoch: Sep 20, 2026 • Age: 15 hours

当前状态

高度 481.8 km
远地点 / 近地点 N/A
速度 7.62 km/s
星下点 -47.04°S, 143.6°E
发射日期 Jun 17, 2022
运行时间 4.2 years
类型 internet

技术详情

分类 Payload
质量 297.00 kg
干质量 275.00 kg
长度 0.20 m
跨度 9.00 m
形状 ? Box + pan
制造商 SPXS
平台类型 Starlink
阶段状态 In Orbit
所有者/国家 SPXS/US

Most Searched